Location: Newark
(59.4564°N, 26.6917°E)
Time: 14:52:27
(UTC+00:00)

S-56A Canister/Altair - Pass Details

Date: 21 November 2019
Orbit: 633 x 2499 km, 38.9° (Epoch: 06 December)

Event Time Altitude Azimuth Distance (km) Brightness Sun altitude
Rises 14:23:06 0° 210° (SSW) 5,304 13.0 -5.7°
Reaches altitude 10° 14:29:30 10° 187° (S) 3,834 11.6 -6.4°
Maximum altitude 14:33:06 13° 165° (SSE) 3,332 11.0 -6.8°
Drops below altitude 10° 14:36:17 10° 142° (SE) 3,269 10.6 -7.2°
Sets 14:40:44 0° 114° (ESE) 3,846 10.7 -7.7°
